Year,Month,Day,Hour,Minute,Value (Times are PST for temperature in C)
2013,10,30,00,00,3.10
2013,10,30,00,01,3.10
2013,10,30,00,02,3.10
2013,10,30,00,03,3.10
2013,10,30,00,04,3.10
2013,10,30,00,05,3.10
2013,10,30,00,06,3.10
2013,10,30,00,07,3.10
2013,10,30,00,08,3.10
2013,10,30,00,09,3.10
2013,10,30,00,10,3.00
2013,10,30,00,11,3.00
2013,10,30,00,12,3.00
2013,10,30,00,13,3.00
2013,10,30,00,14,3.00
2013,10,30,00,15,3.00
2013,10,30,00,16,3.00
2013,10,30,00,17,3.00
2013,10,30,00,18,3.00
2013,10,30,00,19,3.00
2013,10,30,00,20,3.00
2013,10,30,00,21,3.00
2013,10,30,00,22,3.00
2013,10,30,00,23,2.90
2013,10,30,00,24,2.90
2013,10,30,00,25,2.90
2013,10,30,00,26,2.90
2013,10,30,00,27,2.90
2013,10,30,00,28,2.90
2013,10,30,00,29,2.90
2013,10,30,00,30,2.90
2013,10,30,00,31,2.90
2013,10,30,00,32,2.90
2013,10,30,00,33,2.90
2013,10,30,00,34,2.90
2013,10,30,00,35,2.90
2013,10,30,00,36,2.90
2013,10,30,00,37,2.90
2013,10,30,00,38,2.80
2013,10,30,00,39,2.80
2013,10,30,00,40,2.80
2013,10,30,00,41,2.80
2013,10,30,00,42,2.80
2013,10,30,00,43,2.80
2013,10,30,00,44,2.80
2013,10,30,00,45,2.80
2013,10,30,00,46,2.80
2013,10,30,00,47,2.70
2013,10,30,00,48,2.70
2013,10,30,00,49,2.70
2013,10,30,00,50,2.70
2013,10,30,00,51,2.70
2013,10,30,00,52,2.70
2013,10,30,00,53,2.70
2013,10,30,00,54,2.60
2013,10,30,00,55,2.60
2013,10,30,00,56,2.60
2013,10,30,00,57,2.60
2013,10,30,00,58,2.60
2013,10,30,00,59,2.60
2013,10,30,01,00,2.60
2013,10,30,01,01,2.60
2013,10,30,01,02,2.70
2013,10,30,01,03,2.70
2013,10,30,01,04,2.60
2013,10,30,01,05,2.60
2013,10,30,01,06,2.60
2013,10,30,01,07,2.60
2013,10,30,01,08,2.60
2013,10,30,01,09,2.60
2013,10,30,01,10,2.60
2013,10,30,01,11,2.60
2013,10,30,01,12,2.60
2013,10,30,01,13,2.60
2013,10,30,01,14,2.60
2013,10,30,01,15,2.60
2013,10,30,01,16,2.60
2013,10,30,01,17,2.70
2013,10,30,01,18,2.70
2013,10,30,01,19,2.70
2013,10,30,01,20,2.70
2013,10,30,01,21,2.70
2013,10,30,01,22,2.70
2013,10,30,01,23,2.70
2013,10,30,01,24,2.70
2013,10,30,01,25,2.60
2013,10,30,01,26,2.60
2013,10,30,01,27,2.60
2013,10,30,01,28,2.60
2013,10,30,01,29,2.60
2013,10,30,01,30,2.60
2013,10,30,01,31,2.60
2013,10,30,01,32,2.60
2013,10,30,01,33,2.60
2013,10,30,01,34,2.60
2013,10,30,01,35,2.60
2013,10,30,01,36,2.50
2013,10,30,01,37,2.60
2013,10,30,01,38,2.50
2013,10,30,01,39,2.50
2013,10,30,01,40,2.50
2013,10,30,01,41,2.60
2013,10,30,01,42,2.60
2013,10,30,01,43,2.60
2013,10,30,01,44,2.60
2013,10,30,01,45,2.60
2013,10,30,01,46,2.60
2013,10,30,01,47,2.60
2013,10,30,01,48,2.60
2013,10,30,01,49,2.70
2013,10,30,01,50,2.70
2013,10,30,01,51,2.70
2013,10,30,01,52,2.70
2013,10,30,01,53,2.70
2013,10,30,01,54,2.70
2013,10,30,01,55,2.70
2013,10,30,01,56,2.70
2013,10,30,01,57,2.70
2013,10,30,01,58,2.70
2013,10,30,01,59,2.70
2013,10,30,02,00,2.70
2013,10,30,02,01,2.80
2013,10,30,02,02,2.80
2013,10,30,02,03,2.80
2013,10,30,02,04,2.80
2013,10,30,02,05,2.90
2013,10,30,02,06,2.90
2013,10,30,02,07,2.90
2013,10,30,02,08,2.90
2013,10,30,02,09,2.90
2013,10,30,02,10,3.00
2013,10,30,02,11,3.00
2013,10,30,02,12,3.00
2013,10,30,02,13,3.10
2013,10,30,02,14,3.10
2013,10,30,02,15,3.10
2013,10,30,02,16,3.10
2013,10,30,02,17,3.20
2013,10,30,02,18,3.20
2013,10,30,02,19,3.20
2013,10,30,02,20,3.20
2013,10,30,02,21,3.30
2013,10,30,02,22,3.30
2013,10,30,02,23,3.30
2013,10,30,02,24,3.30
2013,10,30,02,25,3.30
2013,10,30,02,26,3.40
2013,10,30,02,27,3.40
2013,10,30,02,28,3.40
2013,10,30,02,29,3.40
2013,10,30,02,30,3.50
2013,10,30,02,31,3.50
2013,10,30,02,32,3.50
2013,10,30,02,33,3.50
2013,10,30,02,34,3.60
2013,10,30,02,35,3.60
2013,10,30,02,36,3.60
2013,10,30,02,37,3.60
2013,10,30,02,38,3.60
2013,10,30,02,39,3.60
2013,10,30,02,40,3.60
2013,10,30,02,41,3.60
2013,10,30,02,42,3.60
2013,10,30,02,43,3.60
2013,10,30,02,44,3.60
2013,10,30,02,45,3.60
2013,10,30,02,46,3.60
2013,10,30,02,47,3.60
2013,10,30,02,48,3.60
2013,10,30,02,49,3.60
2013,10,30,02,50,3.60
2013,10,30,02,51,3.60
2013,10,30,02,52,3.70
2013,10,30,02,53,3.70
2013,10,30,02,54,3.70
2013,10,30,02,55,3.70
2013,10,30,02,56,3.70
2013,10,30,02,57,3.70
2013,10,30,02,58,3.70
2013,10,30,02,59,3.70
2013,10,30,03,00,3.70
2013,10,30,03,01,3.70
2013,10,30,03,02,3.80
2013,10,30,03,03,3.80
2013,10,30,03,04,3.80
2013,10,30,03,05,3.80
2013,10,30,03,06,3.80
2013,10,30,03,07,3.80
2013,10,30,03,08,3.80
2013,10,30,03,09,3.80
2013,10,30,03,10,3.90
2013,10,30,03,11,3.90
2013,10,30,03,12,3.90
2013,10,30,03,13,3.90
2013,10,30,03,14,3.90
2013,10,30,03,15,3.90
2013,10,30,03,16,3.90
2013,10,30,03,17,3.90
2013,10,30,03,18,3.90
2013,10,30,03,19,3.90
2013,10,30,03,20,3.90
2013,10,30,03,21,3.90
2013,10,30,03,22,3.90
2013,10,30,03,23,3.90
2013,10,30,03,24,3.90
2013,10,30,03,25,3.90
2013,10,30,03,26,3.90
2013,10,30,03,27,3.90
2013,10,30,03,28,3.90
2013,10,30,03,29,3.90
2013,10,30,03,30,4.00
2013,10,30,03,31,4.00
2013,10,30,03,32,4.00
2013,10,30,03,33,4.00
2013,10,30,03,34,4.00
2013,10,30,03,35,4.00
2013,10,30,03,36,4.00
2013,10,30,03,37,4.00
2013,10,30,03,38,4.00
2013,10,30,03,39,4.00
2013,10,30,03,40,4.00
2013,10,30,03,41,4.00
2013,10,30,03,42,4.00
2013,10,30,03,43,4.00
2013,10,30,03,44,4.00
2013,10,30,03,45,4.00
2013,10,30,03,46,4.00
2013,10,30,03,47,4.00
2013,10,30,03,48,4.00
2013,10,30,03,49,4.10
2013,10,30,03,50,4.10
2013,10,30,03,51,4.10
2013,10,30,03,52,4.10
2013,10,30,03,53,4.10
2013,10,30,03,54,4.10
2013,10,30,03,55,4.10
2013,10,30,03,56,4.10
2013,10,30,03,57,4.10
2013,10,30,03,58,4.10
2013,10,30,03,59,4.10
2013,10,30,04,00,4.10
2013,10,30,04,01,4.10
2013,10,30,04,02,4.10
2013,10,30,04,03,4.10
2013,10,30,04,04,4.10
2013,10,30,04,05,4.10
2013,10,30,04,06,4.10
2013,10,30,04,07,4.10
2013,10,30,04,08,4.10
2013,10,30,04,09,4.10
2013,10,30,04,10,4.10
2013,10,30,04,11,4.20
2013,10,30,04,12,4.20
2013,10,30,04,13,4.20
2013,10,30,04,14,4.20
2013,10,30,04,15,4.20
2013,10,30,04,16,4.20
2013,10,30,04,17,4.20
2013,10,30,04,18,4.20
2013,10,30,04,19,4.30
2013,10,30,04,20,4.30
2013,10,30,04,21,4.30
2013,10,30,04,22,4.30
2013,10,30,04,23,4.30
2013,10,30,04,24,4.30
2013,10,30,04,25,4.30
2013,10,30,04,26,4.30
2013,10,30,04,27,4.30
2013,10,30,04,28,4.30
2013,10,30,04,29,4.30
2013,10,30,04,30,4.30
2013,10,30,04,31,4.40
2013,10,30,04,32,4.40
2013,10,30,04,33,4.40
2013,10,30,04,34,4.40
2013,10,30,04,35,4.40
2013,10,30,04,36,4.50
2013,10,30,04,37,4.50
2013,10,30,04,38,4.50
2013,10,30,04,39,4.50
2013,10,30,04,40,4.60
2013,10,30,04,41,4.60
2013,10,30,04,42,4.60
2013,10,30,04,43,4.60
2013,10,30,04,44,4.60
2013,10,30,04,45,4.60
2013,10,30,04,46,4.70
2013,10,30,04,47,4.70
2013,10,30,04,48,4.70
2013,10,30,04,49,4.70
2013,10,30,04,50,4.70
2013,10,30,04,51,4.70
2013,10,30,04,52,4.70
2013,10,30,04,53,4.70
2013,10,30,04,54,4.70
2013,10,30,04,55,4.70
2013,10,30,04,56,4.80
2013,10,30,04,57,4.80
2013,10,30,04,58,4.80
2013,10,30,04,59,4.80
2013,10,30,05,00,4.80
2013,10,30,05,01,4.80
2013,10,30,05,02,4.80
2013,10,30,05,03,4.80
2013,10,30,05,04,4.80
2013,10,30,05,05,4.80
2013,10,30,05,06,4.80
2013,10,30,05,07,4.80
2013,10,30,05,08,4.80
2013,10,30,05,09,4.90
2013,10,30,05,10,4.90
2013,10,30,05,11,4.90
2013,10,30,05,12,4.90
2013,10,30,05,13,4.90
2013,10,30,05,14,4.90
2013,10,30,05,15,4.90
2013,10,30,05,16,4.90
2013,10,30,05,17,4.90
2013,10,30,05,18,4.90
2013,10,30,05,19,4.90
2013,10,30,05,20,4.90
2013,10,30,05,21,4.90
2013,10,30,05,22,4.90
2013,10,30,05,23,5.00
2013,10,30,05,24,5.00
2013,10,30,05,25,5.00
2013,10,30,05,26,5.00
2013,10,30,05,27,5.00
2013,10,30,05,28,5.00
2013,10,30,05,29,5.00
2013,10,30,05,30,5.00
2013,10,30,05,31,5.00
2013,10,30,05,32,5.00
2013,10,30,05,33,5.00
2013,10,30,05,34,5.00
2013,10,30,05,35,5.00
2013,10,30,05,36,5.00
2013,10,30,05,37,5.10
2013,10,30,05,38,5.10
2013,10,30,05,39,5.10
2013,10,30,05,40,5.10
2013,10,30,05,41,5.10
2013,10,30,05,42,5.10
2013,10,30,05,43,5.10
2013,10,30,05,44,5.10
2013,10,30,05,45,5.10
2013,10,30,05,46,5.10
2013,10,30,05,47,5.10
2013,10,30,05,48,5.10
2013,10,30,05,49,5.10
2013,10,30,05,50,5.20
2013,10,30,05,51,5.20
2013,10,30,05,52,5.20
2013,10,30,05,53,5.20
2013,10,30,05,54,5.20
2013,10,30,05,55,5.20
2013,10,30,05,56,5.20
2013,10,30,05,57,5.20
2013,10,30,05,58,5.30
2013,10,30,05,59,5.30
2013,10,30,06,00,5.30
2013,10,30,06,01,5.30
2013,10,30,06,02,5.30
2013,10,30,06,03,5.30
2013,10,30,06,04,5.30
2013,10,30,06,05,5.30
2013,10,30,06,06,5.30
2013,10,30,06,07,5.30
2013,10,30,06,08,5.30
2013,10,30,06,09,5.30
2013,10,30,06,10,5.30
2013,10,30,06,11,5.30
2013,10,30,06,12,5.30
2013,10,30,06,13,5.30
2013,10,30,06,14,5.30
2013,10,30,06,15,5.30
2013,10,30,06,16,5.30
2013,10,30,06,17,5.30
2013,10,30,06,18,5.30
2013,10,30,06,19,5.30
2013,10,30,06,20,5.30
2013,10,30,06,21,5.30
2013,10,30,06,22,5.30
2013,10,30,06,23,5.30
2013,10,30,06,24,5.30
2013,10,30,06,25,5.30
2013,10,30,06,26,5.30
2013,10,30,06,27,5.40
2013,10,30,06,28,5.40
2013,10,30,06,29,5.40
2013,10,30,06,30,5.30
2013,10,30,06,31,5.30
2013,10,30,06,32,5.30
2013,10,30,06,33,5.30
2013,10,30,06,34,5.30
2013,10,30,06,35,5.30
2013,10,30,06,36,5.30
2013,10,30,06,37,5.30
2013,10,30,06,38,5.30
2013,10,30,06,39,5.30
2013,10,30,06,40,5.30
2013,10,30,06,41,5.30
2013,10,30,06,42,5.30
2013,10,30,06,43,5.30
2013,10,30,06,44,5.30
2013,10,30,06,45,5.30
2013,10,30,06,46,5.40
2013,10,30,06,47,5.40
2013,10,30,06,48,5.40
2013,10,30,06,49,5.40
2013,10,30,06,50,5.40
2013,10,30,06,51,5.40
2013,10,30,06,52,5.40
2013,10,30,06,53,5.40
2013,10,30,06,54,5.40
2013,10,30,06,55,5.40
2013,10,30,06,56,5.40
2013,10,30,06,57,5.40
2013,10,30,06,58,5.40
2013,10,30,06,59,5.40
2013,10,30,07,00,5.40
2013,10,30,07,01,5.40
2013,10,30,07,02,5.50
2013,10,30,07,03,5.50
2013,10,30,07,04,5.50
2013,10,30,07,05,5.50
2013,10,30,07,06,5.50
2013,10,30,07,07,5.50
2013,10,30,07,08,5.50
2013,10,30,07,09,5.60
2013,10,30,07,10,5.60
2013,10,30,07,11,5.60
2013,10,30,07,12,5.60
2013,10,30,07,13,5.60
2013,10,30,07,14,5.60
2013,10,30,07,15,5.60
2013,10,30,07,16,5.60
2013,10,30,07,17,5.60
2013,10,30,07,18,5.70
2013,10,30,07,19,5.70
2013,10,30,07,20,5.70
2013,10,30,07,21,5.70
2013,10,30,07,22,5.70
2013,10,30,07,23,5.70
2013,10,30,07,24,5.70
2013,10,30,07,25,5.70
2013,10,30,07,26,5.70
2013,10,30,07,27,5.70
2013,10,30,07,28,5.70
2013,10,30,07,29,5.70
2013,10,30,07,30,5.70
2013,10,30,07,31,5.70
2013,10,30,07,32,5.70
2013,10,30,07,33,5.80
2013,10,30,07,34,5.80
2013,10,30,07,35,5.80
2013,10,30,07,36,5.80
2013,10,30,07,37,5.90
2013,10,30,07,38,5.90
2013,10,30,07,39,5.90
2013,10,30,07,40,5.90
2013,10,30,07,41,5.90
2013,10,30,07,42,5.80
2013,10,30,07,43,5.80
2013,10,30,07,44,5.80
2013,10,30,07,45,5.80
2013,10,30,07,46,5.90
2013,10,30,07,47,5.90
2013,10,30,07,48,5.90
2013,10,30,07,49,5.90
2013,10,30,07,50,5.90
2013,10,30,07,51,5.90
2013,10,30,07,52,6.00
2013,10,30,07,53,6.00
2013,10,30,07,54,6.00
2013,10,30,07,55,6.00
2013,10,30,07,56,5.90
2013,10,30,07,57,5.90
2013,10,30,07,58,5.90
2013,10,30,07,59,5.90
2013,10,30,08,00,5.90
2013,10,30,08,01,5.90
2013,10,30,08,02,5.90
2013,10,30,08,03,5.90
2013,10,30,08,04,5.90
2013,10,30,08,05,5.90
2013,10,30,08,06,5.90
2013,10,30,08,07,5.90
2013,10,30,08,08,5.90
2013,10,30,08,09,5.90
2013,10,30,08,10,5.90
2013,10,30,08,11,5.90
2013,10,30,08,12,5.90
2013,10,30,08,13,5.90
2013,10,30,08,14,6.00
2013,10,30,08,15,5.90
2013,10,30,08,16,5.90
2013,10,30,08,17,6.00
2013,10,30,08,18,5.90
2013,10,30,08,19,5.90
2013,10,30,08,20,5.90
2013,10,30,08,21,6.00
2013,10,30,08,22,6.00
2013,10,30,08,23,6.00
2013,10,30,08,24,6.00
2013,10,30,08,25,6.00
2013,10,30,08,26,6.00
2013,10,30,08,27,6.00
2013,10,30,08,28,6.10
2013,10,30,08,29,6.10
2013,10,30,08,30,6.10
2013,10,30,08,31,6.10
2013,10,30,08,32,6.10
2013,10,30,08,33,6.10
2013,10,30,08,34,6.10
2013,10,30,08,35,6.20
2013,10,30,08,36,6.20
2013,10,30,08,37,6.20
2013,10,30,08,38,6.20
2013,10,30,08,39,6.20
2013,10,30,08,40,6.20
2013,10,30,08,41,6.30
2013,10,30,08,42,6.30
2013,10,30,08,43,6.30
2013,10,30,08,44,6.30
2013,10,30,08,45,6.30
2013,10,30,08,46,6.30
2013,10,30,08,47,6.30
2013,10,30,08,48,6.30
2013,10,30,08,49,6.40
2013,10,30,08,50,6.40
2013,10,30,08,51,6.40
2013,10,30,08,52,6.50
2013,10,30,08,53,6.50
2013,10,30,08,54,6.50
2013,10,30,08,55,6.50
2013,10,30,08,56,6.60
2013,10,30,08,57,6.60
2013,10,30,08,58,6.60
2013,10,30,08,59,6.70
2013,10,30,09,00,6.70
2013,10,30,09,01,6.70
2013,10,30,09,02,6.70
2013,10,30,09,03,6.70
2013,10,30,09,04,6.70
2013,10,30,09,05,6.70
2013,10,30,09,06,6.80
2013,10,30,09,07,6.80
2013,10,30,09,08,6.80
2013,10,30,09,09,6.80
2013,10,30,09,10,6.80
2013,10,30,09,11,6.80
2013,10,30,09,12,6.90
2013,10,30,09,13,6.90
2013,10,30,09,14,7.00
2013,10,30,09,15,7.00
2013,10,30,09,16,7.10
2013,10,30,09,17,7.10
2013,10,30,09,18,7.20
2013,10,30,09,19,7.20
2013,10,30,09,20,7.20
2013,10,30,09,21,7.20
2013,10,30,09,22,7.30
2013,10,30,09,23,7.30
2013,10,30,09,24,7.30
2013,10,30,09,25,7.30
2013,10,30,09,26,7.40
2013,10,30,09,27,7.40
2013,10,30,09,28,7.50
2013,10,30,09,29,7.50
2013,10,30,09,30,7.60
2013,10,30,09,31,7.60
2013,10,30,09,32,7.60
2013,10,30,09,33,7.70
2013,10,30,09,34,7.70
2013,10,30,09,35,7.70
2013,10,30,09,36,7.80
2013,10,30,09,37,7.80
2013,10,30,09,38,7.80
2013,10,30,09,39,7.80
2013,10,30,09,40,7.80
2013,10,30,09,41,7.90
2013,10,30,09,42,7.90
2013,10,30,09,43,8.00
2013,10,30,09,44,8.00
2013,10,30,09,45,8.10
2013,10,30,09,46,8.10
2013,10,30,09,47,8.20
2013,10,30,09,48,8.20
2013,10,30,09,49,8.20
2013,10,30,09,50,8.20
2013,10,30,09,51,8.30
2013,10,30,09,52,8.30
2013,10,30,09,53,8.30
2013,10,30,09,54,8.30
2013,10,30,09,55,8.40
2013,10,30,09,56,8.40
2013,10,30,09,57,8.40
2013,10,30,09,58,8.50
2013,10,30,09,59,8.50
2013,10,30,10,00,8.50
2013,10,30,10,01,8.50
2013,10,30,10,02,8.60
2013,10,30,10,03,8.60
2013,10,30,10,04,8.60
2013,10,30,10,05,8.60
2013,10,30,10,06,8.60
2013,10,30,10,07,8.60
2013,10,30,10,08,8.70
2013,10,30,10,09,8.70
2013,10,30,10,10,8.70
2013,10,30,10,11,8.70
2013,10,30,10,12,8.80
2013,10,30,10,13,8.80
2013,10,30,10,14,8.80
2013,10,30,10,15,8.90
2013,10,30,10,16,8.90
2013,10,30,10,17,8.90
2013,10,30,10,18,9.00
2013,10,30,10,19,9.10
2013,10,30,10,20,9.10
2013,10,30,10,21,9.10
2013,10,30,10,22,9.20
2013,10,30,10,23,9.20
2013,10,30,10,24,9.20
2013,10,30,10,25,9.30
2013,10,30,10,26,9.30
2013,10,30,10,27,9.30
2013,10,30,10,28,9.30
2013,10,30,10,29,9.40
2013,10,30,10,30,9.40
2013,10,30,10,31,9.40
2013,10,30,10,32,9.40
2013,10,30,10,33,9.50
2013,10,30,10,34,9.60
2013,10,30,10,35,9.60
2013,10,30,10,36,9.60
2013,10,30,10,37,9.60
2013,10,30,10,38,9.70
2013,10,30,10,39,9.70
2013,10,30,10,40,9.80
2013,10,30,10,41,9.80
2013,10,30,10,42,9.90
2013,10,30,10,43,9.90
2013,10,30,10,44,9.90
2013,10,30,10,45,10.00
2013,10,30,10,46,10.00
2013,10,30,10,47,10.10
2013,10,30,10,48,10.10
2013,10,30,10,49,10.10
2013,10,30,10,50,10.00
2013,10,30,10,51,10.00
2013,10,30,10,52,10.00
2013,10,30,10,53,10.00
2013,10,30,10,54,10.10
2013,10,30,10,55,10.10
2013,10,30,10,56,10.10
2013,10,30,10,57,10.10
2013,10,30,10,58,10.10
2013,10,30,10,59,10.10
2013,10,30,11,00,10.10
2013,10,30,11,01,10.10
2013,10,30,11,02,10.10
2013,10,30,11,03,10.20
2013,10,30,11,04,10.20
2013,10,30,11,05,10.20
2013,10,30,11,06,10.20
2013,10,30,11,07,10.30
2013,10,30,11,08,10.30
2013,10,30,11,09,10.30
2013,10,30,11,10,10.30
2013,10,30,11,11,10.30
2013,10,30,11,12,10.30
2013,10,30,11,13,10.30
2013,10,30,11,14,10.30
2013,10,30,11,15,10.30
2013,10,30,11,16,10.30
2013,10,30,11,17,10.30
2013,10,30,11,18,10.30
2013,10,30,11,19,10.30
2013,10,30,11,20,10.30
2013,10,30,11,21,10.30
2013,10,30,11,22,10.30
2013,10,30,11,23,10.30
2013,10,30,11,24,10.30
2013,10,30,11,25,10.30
2013,10,30,11,26,10.30
2013,10,30,11,27,10.40
2013,10,30,11,28,10.40
2013,10,30,11,29,10.40
2013,10,30,11,30,10.40
2013,10,30,11,31,10.30
2013,10,30,11,32,10.30
2013,10,30,11,33,10.30
2013,10,30,11,34,10.30
2013,10,30,11,35,10.30
2013,10,30,11,36,10.30
2013,10,30,11,37,10.30
2013,10,30,11,38,10.30
2013,10,30,11,39,10.30
2013,10,30,11,40,10.30
2013,10,30,11,41,10.30
2013,10,30,11,42,10.30
2013,10,30,11,43,10.40
2013,10,30,11,44,10.40
2013,10,30,11,45,10.40
2013,10,30,11,46,10.40
2013,10,30,11,47,10.50
2013,10,30,11,48,10.50
2013,10,30,11,49,10.50
2013,10,30,11,50,10.50
2013,10,30,11,51,10.50
2013,10,30,11,52,10.40
2013,10,30,11,53,10.40
2013,10,30,11,54,10.40
2013,10,30,11,55,10.40
2013,10,30,11,56,10.30
2013,10,30,11,57,10.30
2013,10,30,11,58,10.30
2013,10,30,11,59,10.30
2013,10,30,12,00,10.30
2013,10,30,12,01,10.30
2013,10,30,12,02,10.30
2013,10,30,12,03,10.30
2013,10,30,12,04,10.30
2013,10,30,12,05,10.30
2013,10,30,12,06,10.30
2013,10,30,12,07,10.30
2013,10,30,12,08,10.30
2013,10,30,12,09,10.30
2013,10,30,12,10,10.30
2013,10,30,12,11,10.30
2013,10,30,12,12,10.40
2013,10,30,12,13,10.40
2013,10,30,12,14,10.40
2013,10,30,12,15,10.40
2013,10,30,12,16,10.40
2013,10,30,12,17,10.40
2013,10,30,12,18,10.40
2013,10,30,12,19,10.40
2013,10,30,12,20,10.50
2013,10,30,12,21,10.50
2013,10,30,12,22,10.50
2013,10,30,12,23,10.60
2013,10,30,12,24,10.60
2013,10,30,12,25,10.60
2013,10,30,12,26,10.60
2013,10,30,12,27,10.60
2013,10,30,12,28,10.60
2013,10,30,12,29,10.60
2013,10,30,12,30,10.60
2013,10,30,12,31,10.60
2013,10,30,12,32,10.60
2013,10,30,12,33,10.60
2013,10,30,12,34,10.60
2013,10,30,12,35,10.60
2013,10,30,12,36,10.70
2013,10,30,12,37,10.70
2013,10,30,12,38,10.80
2013,10,30,12,39,10.80
2013,10,30,12,40,10.80
2013,10,30,12,41,10.90
2013,10,30,12,42,10.90
2013,10,30,12,43,10.90
2013,10,30,12,44,10.90
2013,10,30,12,45,10.90
2013,10,30,12,46,10.90
2013,10,30,12,47,10.90
2013,10,30,12,48,11.00
2013,10,30,12,49,11.00
2013,10,30,12,50,11.00
2013,10,30,12,51,11.00
2013,10,30,12,52,11.10
2013,10,30,12,53,11.10
2013,10,30,12,54,11.10
2013,10,30,12,55,11.10
2013,10,30,12,56,11.10
2013,10,30,12,57,11.10
2013,10,30,12,58,11.10
2013,10,30,12,59,11.10
2013,10,30,13,00,11.10
2013,10,30,13,01,11.10
2013,10,30,13,02,11.10
2013,10,30,13,03,11.10
2013,10,30,13,04,11.10
2013,10,30,13,05,11.10
2013,10,30,13,06,11.10
2013,10,30,13,07,11.10
2013,10,30,13,08,11.10
2013,10,30,13,09,11.10
2013,10,30,13,10,11.10
2013,10,30,13,11,11.10
2013,10,30,13,12,11.10
2013,10,30,13,13,11.10
2013,10,30,13,14,11.10
2013,10,30,13,15,11.10
2013,10,30,13,16,11.10
2013,10,30,13,17,11.10
2013,10,30,13,18,11.10
2013,10,30,13,19,11.10
2013,10,30,13,20,11.10
2013,10,30,13,21,11.10
2013,10,30,13,22,11.10
2013,10,30,13,23,11.10
2013,10,30,13,24,11.10
2013,10,30,13,25,11.00
2013,10,30,13,26,11.00
2013,10,30,13,27,11.00
2013,10,30,13,28,11.00
2013,10,30,13,29,10.90
2013,10,30,13,30,11.00
2013,10,30,13,31,11.00
2013,10,30,13,32,11.00
2013,10,30,13,33,11.10
2013,10,30,13,34,11.00
2013,10,30,13,35,11.00
2013,10,30,13,36,11.00
2013,10,30,13,37,10.90
2013,10,30,13,38,10.90
2013,10,30,13,39,10.90
2013,10,30,13,40,10.90
2013,10,30,13,41,10.90
2013,10,30,13,42,10.90
2013,10,30,13,43,10.90
2013,10,30,13,44,10.90
2013,10,30,13,45,10.90
2013,10,30,13,46,10.90
2013,10,30,13,47,11.00
2013,10,30,13,48,11.00
2013,10,30,13,49,11.00
2013,10,30,13,50,11.00
2013,10,30,13,51,11.10
2013,10,30,13,52,11.10
2013,10,30,13,53,11.10
2013,10,30,13,54,11.10
2013,10,30,13,55,11.10
2013,10,30,13,56,11.10
2013,10,30,13,57,11.10
2013,10,30,13,58,11.10
2013,10,30,13,59,11.10
2013,10,30,14,00,11.10
2013,10,30,14,01,11.10
2013,10,30,14,02,11.00
2013,10,30,14,03,11.00
2013,10,30,14,04,10.90
2013,10,30,14,05,10.90
2013,10,30,14,06,10.90
2013,10,30,14,07,10.90
2013,10,30,14,08,10.90
2013,10,30,14,09,10.80
2013,10,30,14,10,10.80
2013,10,30,14,11,10.80
2013,10,30,14,12,10.80
2013,10,30,14,13,10.80
2013,10,30,14,14,10.80
2013,10,30,14,15,10.80
2013,10,30,14,16,10.80
2013,10,30,14,17,10.80
2013,10,30,14,18,10.70
2013,10,30,14,19,10.70
2013,10,30,14,20,10.70
2013,10,30,14,21,10.60
2013,10,30,14,22,10.60
2013,10,30,14,23,10.50
2013,10,30,14,24,10.50
2013,10,30,14,25,10.40
2013,10,30,14,26,10.40
2013,10,30,14,27,10.40
2013,10,30,14,28,10.40
2013,10,30,14,29,10.40
2013,10,30,14,30,10.40
2013,10,30,14,31,10.50
2013,10,30,14,32,10.50
2013,10,30,14,33,10.50
2013,10,30,14,34,10.50
2013,10,30,14,35,10.50
2013,10,30,14,36,10.50
2013,10,30,14,37,10.60
2013,10,30,14,38,10.60
2013,10,30,14,39,10.60
2013,10,30,14,40,10.60
2013,10,30,14,41,10.60
2013,10,30,14,42,10.60
2013,10,30,14,43,10.60
2013,10,30,14,44,10.60
2013,10,30,14,45,10.60
2013,10,30,14,46,10.60
2013,10,30,14,47,10.60
2013,10,30,14,48,10.60
2013,10,30,14,49,10.60
2013,10,30,14,50,10.60
2013,10,30,14,51,10.60
2013,10,30,14,52,10.60
2013,10,30,14,53,10.70
2013,10,30,14,54,10.70
2013,10,30,14,55,10.60
2013,10,30,14,56,10.60
2013,10,30,14,57,10.60
2013,10,30,14,58,10.60
2013,10,30,14,59,10.60
2013,10,30,15,00,10.60
2013,10,30,15,01,10.60
2013,10,30,15,02,10.60
2013,10,30,15,03,10.60
2013,10,30,15,04,10.60
2013,10,30,15,05,10.60
2013,10,30,15,06,10.60
2013,10,30,15,07,10.60
2013,10,30,15,08,10.60
2013,10,30,15,09,10.60
2013,10,30,15,10,10.60
2013,10,30,15,11,10.60
2013,10,30,15,12,10.60
2013,10,30,15,13,10.60
2013,10,30,15,14,10.60
2013,10,30,15,15,10.60
2013,10,30,15,16,10.60
2013,10,30,15,17,10.60
2013,10,30,15,18,10.60
2013,10,30,15,19,10.70
2013,10,30,15,20,10.60
2013,10,30,15,21,10.70
2013,10,30,15,22,10.70
2013,10,30,15,23,10.70
2013,10,30,15,24,10.60
2013,10,30,15,25,10.60
2013,10,30,15,26,10.60
2013,10,30,15,27,10.60
2013,10,30,15,28,10.60
2013,10,30,15,29,10.60
2013,10,30,15,30,10.60
2013,10,30,15,31,10.60
2013,10,30,15,32,10.60
2013,10,30,15,33,10.60
2013,10,30,15,34,10.60
2013,10,30,15,35,10.60
2013,10,30,15,36,10.60
2013,10,30,15,37,10.60
2013,10,30,15,38,10.60
2013,10,30,15,39,10.60
2013,10,30,15,40,10.60
2013,10,30,15,41,10.60
2013,10,30,15,42,10.60
2013,10,30,15,43,10.60
2013,10,30,15,44,10.60
2013,10,30,15,45,10.60
2013,10,30,15,46,10.60
2013,10,30,15,47,10.60
2013,10,30,15,48,10.60
2013,10,30,15,49,10.60
2013,10,30,15,50,10.50
2013,10,30,15,51,10.50
2013,10,30,15,52,10.50
2013,10,30,15,53,10.50
2013,10,30,15,54,10.50
2013,10,30,15,55,10.40
2013,10,30,15,56,10.40
2013,10,30,15,57,10.40
2013,10,30,15,58,10.40
2013,10,30,15,59,10.40
2013,10,30,16,00,10.40
2013,10,30,16,01,10.40
2013,10,30,16,02,10.40
2013,10,30,16,03,10.40
2013,10,30,16,04,10.40
2013,10,30,16,05,10.40
2013,10,30,16,06,10.40
2013,10,30,16,07,10.40
2013,10,30,16,08,10.40
2013,10,30,16,09,10.30
2013,10,30,16,10,10.30
2013,10,30,16,11,10.30
2013,10,30,16,12,10.30
2013,10,30,16,13,10.30
2013,10,30,16,14,10.20
2013,10,30,16,15,10.20
2013,10,30,16,16,10.20
2013,10,30,16,17,10.20
2013,10,30,16,18,10.20
2013,10,30,16,19,10.20
2013,10,30,16,20,10.20
2013,10,30,16,21,10.20
2013,10,30,16,22,10.10
2013,10,30,16,23,10.10
2013,10,30,16,24,10.10
2013,10,30,16,25,10.10
2013,10,30,16,26,10.10
2013,10,30,16,27,10.10
2013,10,30,16,28,10.10
2013,10,30,16,29,10.00
2013,10,30,16,30,10.00
2013,10,30,16,31,10.00
2013,10,30,16,32,9.90
2013,10,30,16,33,9.90
2013,10,30,16,34,9.90
2013,10,30,16,35,9.90
2013,10,30,16,36,9.90
2013,10,30,16,37,9.90
2013,10,30,16,38,9.90
2013,10,30,16,39,9.90
2013,10,30,16,40,9.90
2013,10,30,16,41,9.90
2013,10,30,16,42,9.80
2013,10,30,16,43,9.80
2013,10,30,16,44,9.80
2013,10,30,16,45,9.80
2013,10,30,16,46,9.80
2013,10,30,16,47,9.80
2013,10,30,16,48,9.80
2013,10,30,16,49,9.80
2013,10,30,16,50,9.80
2013,10,30,16,51,9.80
2013,10,30,16,52,9.80
2013,10,30,16,53,9.80
2013,10,30,16,54,9.80
2013,10,30,16,55,9.80
2013,10,30,16,56,9.80
2013,10,30,16,57,9.80
2013,10,30,16,58,9.90
2013,10,30,16,59,9.90
2013,10,30,17,00,9.90
2013,10,30,17,01,9.90
2013,10,30,17,02,9.80
2013,10,30,17,03,9.80
2013,10,30,17,04,9.80
2013,10,30,17,05,9.80
2013,10,30,17,06,9.80
2013,10,30,17,07,9.80
2013,10,30,17,08,9.80
2013,10,30,17,09,9.80
2013,10,30,17,10,9.80
2013,10,30,17,11,9.80
2013,10,30,17,12,9.80
2013,10,30,17,13,9.80
2013,10,30,17,14,9.80
2013,10,30,17,15,9.80
2013,10,30,17,16,9.80
2013,10,30,17,17,9.80
2013,10,30,17,18,9.70
2013,10,30,17,19,9.70
2013,10,30,17,20,9.70
2013,10,30,17,21,9.70
2013,10,30,17,22,9.70
2013,10,30,17,23,9.70
2013,10,30,17,24,9.70
2013,10,30,17,25,9.70
2013,10,30,17,26,9.70
2013,10,30,17,27,9.70
2013,10,30,17,28,9.70
2013,10,30,17,29,9.70
2013,10,30,17,30,9.70
2013,10,30,17,31,9.70
2013,10,30,17,32,9.70
2013,10,30,17,33,9.70
2013,10,30,17,34,9.70
2013,10,30,17,35,9.70
2013,10,30,17,36,9.70
2013,10,30,17,37,9.70
2013,10,30,17,38,9.70
2013,10,30,17,39,9.70
2013,10,30,17,40,9.70
2013,10,30,17,41,9.60
2013,10,30,17,42,9.60
2013,10,30,17,43,9.60
2013,10,30,17,44,9.60
2013,10,30,17,45,9.60
2013,10,30,17,46,9.60
2013,10,30,17,47,9.60
2013,10,30,17,48,9.60
2013,10,30,17,49,9.60
2013,10,30,17,50,9.60